Wind_Speed
21 20 20 20 20 21 21 22 24 25 27 28 29 30 30 31 31 32 33 33 33 33 33 33 34 34 35 36 36 37 37 38 39 40 40 40 42 43 45 46 47 49 50
20 20 20 20 21 21 23 24 25 27 28 29 30 30 31 31 32 32 32 32 32 32 32 32 33 33 34 35 36 37 37 39 41 43 44 43 43 46 48 49 51 52 54
20 19 20 20 21 22 24 25 27 28 29 30 31 31 31 32 32 32 32 31 31 31 31 32 33 34 35 36 38 39 40 42 44 47 49 50 50 51 51 54 56 58 59
20 20 21 21 22 24 25 27 28 29 31 31 32 32 32 32 32 32 31 31 31 32 33 34 35 36 37 39 41 43 45 47 49 51 54 56 58 60 59 57 60 62 65
20 21 22 23 24 25 27 28 29 31 32 32 33 33 33 33 33 32 33 33 34 35 36 37 38 40 41 43 46 48 50 52 54 56 58 60 63 66 68 67 66 67 69
22 22 23 24 25 26 28 29 31 32 33 33 34 34 35 34 34 34 35 36 37 38 39 40 42 44 46 48 50 52 54 57 59 61 63 65 67 69 73 75 75 75 74
23 24 24 26 27 28 29 31 32 33 34 35 35 36 36 36 37 37 38 39 40 41 42 44 46 48 50 53 55 57 59 61 63 65 68 70 72 74 77 79 80 81 80
25 26 27 28 29 30 31 32 34 35 36 36 37 37 37 38 39 40 40 41 43 44 46 48 50 52 54 56 58 60 62 65 67 69 71 73 75 78 80 83 85 87 86
27 28 29 30 31 32 33 35 36 37 38 38 38 39 39 40 40 41 43 44 46 47 49 51 53 55 57 60 62 64 66 68 70 73 75 77 79 81 84 86 88 91 92
29 30 31 32 33 35 37 38 39 39 40 40 40 40 41 42 43 43 45 46 48 50 52 54 56 58 61 63 65 67 70 72 74 76 78 80 83 85 87 89 91 93 96
30 32 33 35 36 38 39 40 41 41 41 41 42 42 43 44 45 46 47 49 50 52 55 57 59 62 64 66 68 71 73 75 77 79 82 84 86 88 89 91 92 92 92
32 34 36 38 39 40 41 42 43 43 43 43 44 44 45 46 47 48 50 51 53 55 57 60 62 64 67 69 72 74 76 78 81 83 85 87 89 90 90 90 89 88 85
35 36 38 40 41 42 43 43 44 44 44 45 45 46 47 48 49 50 52 54 56 58 60 62 65 67 70 72 75 77 79 82 84 86 87 89 90 89 88 86 84 80 77
37 39 40 41 43 44 44 44 45 45 46 46 47 47 48 49 51 53 54 56 58 60 62 65 68 71 73 75 78 80 82 84 86 87 88 88 88 86 83 79 75 71 68
39 41 42 43 44 45 45 45 46 47 47 48 49 49 50 51 53 55 57 59 61 63 65 68 71 74 76 78 81 83 84 85 86 87 86 85 82 79 76 71 67 63 60
41 42 44 45 45 45 46 46 47 48 48 49 50 51 52 54 56 58 60 61 63 66 69 72 74 76 78 81 83 85 86 87 87 85 83 80 76 71 67 63 60 57 55
43 44 44 45 45 45 46 47 48 49 50 51 52 53 55 56 58 60 62 64 66 69 72 74 76 78 80 82 84 85 86 86 84 82 78 74 68 64 60 56 53 51 50
44 44 44 45 45 46 47 48 49 50 51 52 53 55 57 58 60 62 64 67 70 72 75 77 78 80 82 83 84 85 85 83 80 77 72 66 60 56 53 50 48 47 46
44 44 45 45 46 47 47 48 49 50 52 53 55 57 58 60 62 65 67 70 73 75 77 79 80 82 82 83 84 83 82 79 74 69 63 59 54 51 49 47 45 43 42
44 45 45 46 47 47 48 49 50 51 53 55 56 58 60 63 66 68 70 73 75 77 79 80 82 83 83 82 82 81 79 74 68 61 55 52 49 47 45 45 43 41 40
45 45 46 47 48 48 49 49 51 52 54 56 58 60 63 66 68 71 73 75 77 79 80 81 82 83 82 80 78 76 72 67 60 54 49 46 45 43 42 42 41 41 39
46 47 47 48 48 49 50 51 53 55 56 58 60 63 66 68 71 73 75 77 79 81 82 83 82 81 79 77 73 69 64 59 54 49 46 44 42 41 40 40 39 38 37
47 47 48 48 49 50 51 53 55 56 58 60 63 65 68 70 73 75 78 79 81 83 83 83 82 79 76 72 67 62 56 52 49 46 43 42 40 39 38 38 37 36 36
47 47 48 49 50 51 53 55 56 58 61 63 66 68 71 73 75 77 80 81 83 83 83 82 80 76 71 66 60 54 49 46 44 42 40 39 38 38 37 36 35 35 35
47 48 49 50 51 52 54 56 59 61 63 66 68 71 73 76 78 79 81 82 83 83 82 80 77 72 66 59 53 49 45 42 41 39 37 37 36 35 35 35 34 34 34
48 49 50 51 52 54 56 59 61 64 66 69 71 74 76 78 80 81 82 81 81 79 78 75 71 66 60 53 47 44 41 40 39 38 37 36 35 34 33 33 33 32 32
Wind_Direction
274 274 275 277 279 281 284 287 289 291 293 294 294 293 292 292 291 291 291 290 290 289 289 289 289 289 289 289 289 289 289 289 288 287 286 286 286 285 285 285 284 284 283
273 275 276 277 280 284 287 290 292 294 295 295 294 293 292 292 291 291 291 291 290 290 290 290 290 290 290 290 290 290 291 291 291 290 288 287 286 286 287 286 285 285 284
273 275 277 280 284 287 291 293 295 296 297 296 295 294 293 293 292 292 291 290 290 290 290 290 291 291 291 291 292 292 293 293 293 293 292 291 289 287 286 288 288 287 286
273 276 279 283 287 290 293 296 297 298 298 297 297 296 296 295 293 292 290 289 290 290 291 290 291 291 292 292 292 293 294 294 294 294 294 294 293 292 289 288 288 288 288
274 277 281 285 289 292 295 297 298 299 299 298 297 297 296 295 293 292 290 289 289 290 290 290 291 291 292 293 293 294 295 295 295 295 295 295 295 295 293 292 290 289 289
277 280 283 287 290 293 296 298 299 299 299 299 298 297 296 295 293 292 290 290 290 289 289 290 291 292 293 294 295 295 296 296 296 297 296 296 296 295 294 294 293 291 291
280 282 285 288 291 294 296 298 299 299 299 298 297 297 296 294 292 291 291 290 290 290 291 291 292 293 294 295 295 296 296 297 297 297 297 297 297 297 296 295 294 293 292
282 283 286 288 291 294 296 299 299 300 299 297 296 296 295 293 292 291 291 291 291 291 292 293 294 294 295 295 296 296 297 297 298 298 298 298 298 298 297 297 296 294 293
283 285 287 289 291 293 296 298 300 300 299 297 296 295 294 293 292 291 291 291 291 292 292 293 294 295 296 296 297 298 298 298 299 299 299 299 299 299 298 297 297 296 294
285 286 288 290 291 293 295 297 299 299 298 297 296 295 294 293 292 292 292 292 292 293 294 294 295 296 297 298 298 299 299 300 300 301 300 300 300 299 299 298 298 297 296
287 287 289 290 291 293 295 297 298 298 298 297 296 295 294 293 293 292 293 293 294 294 295 296 297 298 299 299 300 301 301 301 302 302 302 302 301 301 300 300 299 298 297
288 289 290 291 292 293 295 296 297 297 297 297 296 295 294 294 293 294 294 295 296 296 297 298 299 300 300 301 302 302 303 303 303 304 304 303 303 302 301 300 299 298 297
289 290 291 292 292 293 294 295 296 297 297 296 296 295 295 294 295 295 296 297 298 299 299 300 301 302 302 303 304 304 305 305 305 305 305 305 304 303 302 300 299 298 296
290 291 292 292 293 293 294 294 295 295 296 296 296 295 295 296 296 297 298 299 299 300 301 302 303 304 304 305 305 306 306 307 307 307 306 305 304 303 301 300 298 297 296
291 291 292 292 293 293 293 294 294 295 295 296 296 296 296 297 298 298 299 300 301 302 303 304 305 305 306 306 307 307 307 307 307 307 306 305 304 302 301 299 298 297 296
291 292 292 292 292 292 293 293 294 295 295 296 296 296 297 298 299 300 301 302 302 303 304 305 306 307 307 308 308 308 308 309 308 308 307 305 303 302 300 299 297 297 296
292 292 292 292 292 293 293 294 294 294 295 296 296 297 298 299 300 301 302 303 303 304 305 306 307 308 309 309 309 309 309 310 309 308 307 305 303 301 299 298 297 296 296
292 292 291 292 292 293 293 294 294 294 295 296 296 298 299 300 301 302 303 303 304 306 307 308 309 309 310 310 310 310 310 310 309 308 307 305 303 301 299 298 297 296 295
291 291 291 292 292 293 293 294 294 294 295 296 297 299 300 301 302 303 304 305 306 307 308 309 310 311 311 311 311 310 310 310 309 308 307 305 304 302 300 299 298 297 296
291 292 292 292 293 293 293 294 294 295 296 297 299 300 301 301 303 304 305 306 307 309 310 311 311 312 312 312 311 311 311 310 309 308 306 305 304 302 301 300 299 298 297
293 293 293 294 294 294 294 294 295 296 297 298 299 300 301 303 304 305 306 308 309 310 311 312 312 313 313 312 312 311 310 310 309 308 306 305 304 302 302 301 301 300 298
295 294 294 294 294 294 295 295 296 297 298 300 301 302 303 304 306 307 308 309 310 311 312 312 313 313 313 312 311 310 309 309 308 308 307 306 305 303 302 302 301 301 300
294 294 294 295 295 295 295 296 297 298 300 301 302 304 305 306 308 309 310 311 311 312 312 313 313 313 313 311 310 309 309 308 307 307 307 307 305 304 303 303 302 301 300
294 294 295 295 295 296 296 297 298 300 301 303 304 305 307 308 309 310 311 312 312 312 313 313 313 313 312 311 309 308 307 306 305 306 306 306 305 304 304 303 302 301 301
294 294 295 295 296 297 298 299 300 302 303 305 306 307 308 309 310 311 312 312 313 313 313 313 313 313 312 311 309 308 307 307 306 306 306 306 305 304 303 303 302 301 301
295 295 296 297 298 299 300 301 302 304 305 306 307 308 309 310 311 311 312 313 313 313 313 313 312 312 312 311 309 308 308 308 308 308 308 307 306 305 304 303 302 302 302
Height
5824 5824 5823 5823 5822 5821 5820 5818 5817 5815 5813 5811 5808 5806 5804 5801 5799 5797 5794 5792 5790 5788 5786 5784 5782 5780 5778 5776 5774 5772 5771 5768 5766 5764 5763 5763 5760 5758 5756 5754 5752 5750 5747
5819 5819 5818 5818 5817 5816 5814 5813 5811 5809 5807 5804 5802 5799 5797 5794 5792 5789 5787 5785 5782 5780 5778 5776 5774 5772 5770 5768 5765 5763 5761 5759 5756 5753 5751 5751 5752 5748 5745 5741 5739 5736 5734
5814 5814 5813 5812 5811 5810 5808 5807 5804 5802 5800 5797 5795 5792 5790 5787 5785 5782 5779 5777 5775 5773 5771 5768 5766 5764 5762 5760 5757 5754 5752 5749 5746 5741 5738 5735 5735 5734 5734 5729 5724 5720 5717
5809 5809 5808 5807 5806 5804 5802 5800 5798 5795 5793 5790 5787 5785 5782 5780 5777 5774 5772 5770 5768 5765 5763 5761 5758 5756 5753 5750 5747 5744 5741 5738 5735 5730 5725 5721 5716 5713 5713 5715 5710 5705 5700
5804 5803 5802 5801 5800 5798 5796 5794 5791 5789 5786 5783 5780 5777 5775 5772 5769 5767 5765 5762 5760 5757 5755 5752 5749 5747 5744 5740 5737 5733 5729 5725 5721 5717 5712 5707 5702 5695 5690 5690 5691 5687 5682
5798 5798 5797 5795 5794 5792 5790 5788 5785 5782 5779 5776 5773 5770 5767 5764 5762 5759 5757 5754 5751 5749 5746 5743 5740 5736 5733 5729 5725 5721 5716 5711 5706 5701 5696 5690 5685 5679 5672 5667 5665 5662 5661
5793 5792 5791 5789 5788 5786 5783 5781 5778 5775 5772 5768 5765 5762 5759 5756 5753 5751 5748 5745 5742 5739 5736 5733 5729 5725 5721 5717 5712 5708 5702 5697 5691 5685 5679 5673 5666 5659 5652 5645 5640 5637 5636
5787 5786 5784 5783 5781 5779 5776 5774 5771 5767 5764 5761 5757 5754 5751 5748 5745 5742 5739 5736 5732 5729 5725 5722 5718 5713 5708 5703 5698 5693 5688 5681 5675 5669 5662 5655 5647 5639 5630 5622 5614 5609 5609
5780 5779 5778 5776 5774 5771 5769 5766 5763 5759 5756 5752 5749 5746 5743 5739 5736 5733 5729 5726 5722 5718 5714 5710 5705 5700 5695 5689 5684 5678 5671 5665 5658 5650 5643 5635 5627 5618 5609 5599 5589 5580 5575
5774 5772 5770 5768 5766 5763 5761 5758 5754 5751 5747 5744 5740 5737 5733 5730 5726 5723 5719 5716 5712 5707 5703 5698 5692 5687 5681 5674 5668 5661 5654 5647 5639 5631 5623 5614 5605 5595 5585 5575 5565 5553 5542
5766 5764 5762 5760 5758 5755 5752 5748 5745 5741 5738 5734 5731 5727 5723 5720 5716 5712 5709 5704 5700 5695 5690 5684 5678 5672 5665 5658 5651 5644 5636 5628 5620 5610 5601 5591 5581 5571 5560 5549 5539 5528 5515
5758 5756 5754 5751 5748 5745 5742 5739 5735 5732 5728 5724 5720 5716 5713 5709 5705 5701 5696 5692 5687 5681 5675 5669 5663 5656 5649 5641 5633 5625 5617 5608 5599 5588 5578 5567 5556 5545 5534 5523 5512 5502 5491
5749 5747 5744 5742 5739 5735 5732 5729 5725 5721 5717 5713 5709 5705 5701 5697 5693 5688 5683 5678 5673 5667 5660 5654 5647 5639 5631 5623 5614 5605 5596 5587 5576 5565 5554 5542 5530 5520 5508 5497 5487 5478 5469
5740 5738 5735 5732 5729 5725 5722 5718 5714 5711 5707 5702 5698 5694 5690 5685 5680 5675 5670 5664 5658 5652 5645 5638 5630 5622 5613 5604 5594 5585 5575 5565 5554 5542 5530 5518 5505 5494 5484 5474 5465 5456 5449
5731 5727 5724 5721 5718 5714 5711 5707 5703 5699 5695 5691 5687 5682 5677 5672 5667 5662 5656 5650 5643 5636 5629 5621 5613 5604 5594 5584 5574 5564 5554 5544 5533 5521 5508 5495 5483 5471 5461 5452 5445 5438 5432
5721 5717 5714 5710 5707 5703 5700 5696 5692 5688 5683 5679 5674 5669 5664 5659 5654 5648 5642 5635 5628 5621 5613 5604 5595 5586 5575 5564 5553 5541 5531 5521 5509 5497 5485 5473 5461 5451 5442 5434 5427 5421 5415
5709 5706 5703 5699 5696 5692 5688 5684 5680 5676 5671 5667 5662 5656 5651 5645 5639 5633 5626 5619 5612 5604 5596 5587 5577 5567 5556 5544 5532 5520 5508 5498 5485 5473 5463 5452 5442 5432 5425 5418 5412 5407 5401
5698 5695 5691 5688 5684 5680 5676 5672 5668 5663 5659 5654 5649 5643 5637 5632 5625 5618 5611 5604 5596 5587 5578 5568 5558 5547 5536 5523 5510 5498 5487 5476 5464 5452 5441 5432 5424 5415 5408 5403 5399 5394 5389
5687 5683 5680 5676 5673 5669 5665 5660 5655 5651 5646 5641 5635 5629 5623 5617 5610 5603 5595 5587 5578 5570 5560 5549 5538 5527 5516 5502 5489 5476 5466 5456 5445 5434 5423 5414 5407 5401 5394 5389 5385 5381 5377
5676 5672 5668 5665 5661 5656 5652 5648 5643 5638 5633 5628 5622 5616 5609 5602 5594 5587 5578 5569 5560 5551 5541 5531 5519 5507 5495 5482 5468 5455 5444 5436 5427 5418 5409 5400 5393 5387 5381 5375 5371 5367 5364
5664 5660 5656 5652 5648 5644 5640 5635 5630 5625 5620 5614 5608 5601 5594 5586 5578 5570 5561 5551 5542 5532 5522 5512 5501 5487 5474 5461 5448 5436 5424 5415 5409 5402 5395 5388 5381 5375 5369 5364 5359 5355 5351
5652 5648 5644 5640 5636 5631 5627 5622 5617 5612 5606 5600 5594 5587 5579 5570 5562 5553 5543 5533 5522 5512 5501 5490 5481 5468 5454 5442 5430 5419 5408 5398 5392 5387 5381 5375 5369 5363 5358 5353 5348 5344 5340
5641 5636 5632 5628 5624 5619 5614 5609 5604 5598 5592 5586 5578 5571 5563 5554 5544 5534 5524 5514 5502 5491 5480 5469 5459 5450 5437 5424 5412 5403 5394 5385 5378 5373 5368 5363 5357 5352 5347 5343 5338 5333 5329
5629 5625 5620 5616 5611 5606 5601 5595 5589 5583 5577 5570 5563 5554 5546 5537 5528 5517 5505 5494 5482 5470 5459 5448 5437 5428 5419 5407 5397 5389 5381 5374 5368 5362 5357 5352 5346 5341 5337 5333 5328 5324 5320
5617 5613 5608 5604 5598 5593 5587 5581 5575 5568 5562 5554 5546 5538 5528 5519 5510 5499 5487 5475 5463 5448 5437 5427 5416 5407 5400 5391 5381 5374 5368 5362 5356 5351 5347 5342 5337 5332 5327 5323 5318 5314 5310
5605 5600 5596 5591 5585 5580 5574 5567 5560 5553 5546 5538 5530 5520 5510 5500 5490 5480 5471 5459 5445 5433 5419 5406 5396 5388 5381 5374 5368 5361 5356 5350 5344 5339 5335 5331 5326 5321 5317 5313 5309 5305 5301